• In Lithuania
  • List of Countries
  • For 7 days
  • Water Temperature
  • Satellite Maps
  • Weather Map
  • Weather Widgets
  • user-avatar
    Login

    Hourly Weather Starotolucheevo

    Today, 16 November, Friday

    Time Temperature Precipitation Wind Pressure Humidity
    00:00 -6°C° 0 mm 5 mps 769 mmHg 33%
    01:00 -6°C° 0 mm 5 mps 769 mmHg 32%
    02:00 -6°C° 0 mm 5 mps 769 mmHg 32%
    03:00 -6°C° 0 mm 5 mps 769 mmHg 31%
    04:00 -6°C° 0 mm 5 mps 769 mmHg 30%
    05:00 -6°C° 0 mm 6 mps 769 mmHg 29%
    06:00 -6°C° 0 mm 6 mps 769 mmHg 28%
    07:00 -5°C° 0 mm 6 mps 770 mmHg 27%
    08:00 -5°C° 0 mm 6 mps 770 mmHg 26%
    09:00 -6°C° 0 mm 7 mps 770 mmHg 25%
    10:00 -3°C° 0 mm 7 mps 770 mmHg 24%
    11:00 -2°C° 0 mm 7 mps 770 mmHg 24%
    12:00 -1°C° 0 mm 7 mps 770 mmHg 23%
    13:00 -1°C° 0 mm 7 mps 770 mmHg 24%
    14:00 -1°C° 0 mm 6 mps 770 mmHg 25%
    15:00 -1°C° 0 mm 6 mps 770 mmHg 26%
    16:00 -1°C° 0 mm 6 mps 770 mmHg 27%
    17:00 -2°C° 0 mm 6 mps 770 mmHg 29%
    18:00 -2°C° 0 mm 5 mps 771 mmHg 31%
    19:00 -2°C° 0 mm 5 mps 771 mmHg 31%
    20:00 -4°C° 0 mm 5 mps 771 mmHg 32%
    21:00 -4°C° 0 mm 5 mps 771 mmHg 33%
    22:00 -5°C° 0 mm 5 mps 771 mmHg 33%
    23:00 -5°C° 0 mm 5 mps 771 mmHg 34%

    Tomorrow, 17 November, Saturday

    Time Temperature Precipitation Wind Pressure Humidity
    00:00 -4°C° 0 mm 4 mps 771 mmHg 35%
    01:00 -6°C° 0 mm 5 mps 770 mmHg 35%
    02:00 -6°C° 0 mm 5 mps 770 mmHg 35%
    03:00 -6°C° 0 mm 5 mps 770 mmHg 35%
    04:00 -6°C° 0 mm 5 mps 770 mmHg 35%
    05:00 -5°C° 0 mm 4 mps 770 mmHg 36%
    06:00 -5°C° 0 mm 4 mps 770 mmHg 36%
    07:00 -5°C° 0 mm 4 mps 770 mmHg 34%
    08:00 -5°C° 0 mm 5 mps 770 mmHg 33%
    09:00 -5°C° 0 mm 5 mps 770 mmHg 32%
    10:00 -2°C° 0 mm 4 mps 769 mmHg 30%
    11:00 -1°C° 0 mm 4 mps 769 mmHg 28%
    12:00 0°C° 0 mm 4 mps 769 mmHg 26%
    13:00 0°C° 0 mm 4 mps 768 mmHg 26%
    14:00 +1°C° 0 mm 4 mps 768 mmHg 27%
    15:00 +2°C° 0 mm 3 mps 767 mmHg 28%
    16:00 0°C° 0 mm 3 mps 767 mmHg 31%
    17:00 -1°C° 0 mm 3 mps 767 mmHg 33%
    18:00 -2°C° 0 mm 2 mps 767 mmHg 36%
    19:00 -3°C° 0 mm 2 mps 766 mmHg 36%
    20:00 -3°C° 0 mm 2 mps 766 mmHg 36%
    21:00 -3°C° 0 mm 2 mps 766 mmHg 37%
    22:00 -1°C° 0 mm 1 mps 765 mmHg 37%
    23:00 -1°C° 0 mm 1 mps 765 mmHg 37%

    Day after tomorrow, 18 November, Sunday

    Time Temperature Precipitation Wind Pressure Humidity
    00:00 -1°C° 0 mm 1 mps 764 mmHg 37%
    01:00 -1°C° 0 mm 1 mps 764 mmHg 38%
    02:00 -3°C° 0 mm 0 mps 763 mmHg 38%
    03:00 -3°C° 0 mm 0 mps 763 mmHg 39%
    04:00 -3°C° 0 mm 0 mps 762 mmHg 39%
    05:00 -3°C° 0 mm 0 mps 762 mmHg 39%
    06:00 -3°C° 0 mm 0 mps 761 mmHg 39%
    07:00 -2°C° 0 mm 0 mps 761 mmHg 38%
    08:00 -2°C° 0 mm 0 mps 761 mmHg 37%
    09:00 0°C° 0 mm 1 mps 761 mmHg 37%
    10:00 +1°C° 0 mm 1 mps 760 mmHg 35%
    11:00 +2°C° 0 mm 1 mps 760 mmHg 32%
    12:00 +3°C° 0 mm 1 mps 760 mmHg 30%
    13:00 +3°C° 0 mm 1 mps 759 mmHg 32%
    14:00 +4°C° 0 mm 1 mps 759 mmHg 33%
    15:00 +4°C° 0 mm 1 mps 759 mmHg 34%
    16:00 +3°C° 0 mm 1 mps 759 mmHg 37%
    17:00 +1°C° 0 mm 1 mps 759 mmHg 40%
    18:00 0°C° 0 mm 1 mps 759 mmHg 43%
    19:00 0°C° 0 mm 1 mps 759 mmHg 44%
    20:00 0°C° 0 mm 1 mps 759 mmHg 45%
    21:00 0°C° 0 mm 1 mps 759 mmHg 46%
    22:00 0°C° 0 mm 1 mps 759 mmHg 48%
    23:00 0°C° 0 mm 1 mps 759 mmHg 49%

    19 November, Monday

    Time Temperature Precipitation Wind Pressure Humidity
    00:00 -1°C° 0 mm 1 mps 760 mmHg 51%
    01:00 -1°C° 0 mm 1 mps 760 mmHg 51%
    02:00 -1°C° 0 mm 1 mps 760 mmHg 52%
    03:00 -1°C° 0 mm 1 mps 760 mmHg 52%
    04:00 -1°C° 0 mm 1 mps 760 mmHg 53%
    05:00 -1°C° 0 mm 1 mps 761 mmHg 53%
    06:00 -3°C° 0 mm 2 mps 761 mmHg 54%
    07:00 -3°C° 0 mm 2 mps 761 mmHg 52%
    08:00 -2°C° 0 mm 2 mps 762 mmHg 50%
    09:00 -2°C° 0 mm 2 mps 762 mmHg 49%
    10:00 +1°C° 0 mm 2 mps 762 mmHg 46%
    11:00 +1°C° 0 mm 3 mps 762 mmHg 44%
    12:00 +2°C° 0 mm 3 mps 763 mmHg 41%
    13:00 +2°C° 0 mm 3 mps 763 mmHg 42%
    14:00 +3°C° 0 mm 3 mps 763 mmHg 43%
    15:00 +4°C° 0 mm 2 mps 763 mmHg 44%
    16:00 +1°C° 0 mm 3 mps 763 mmHg 47%
    17:00 0°C° 0 mm 3 mps 763 mmHg 50%
    18:00 -2°C° 0 mm 3 mps 764 mmHg 54%
    19:00 -2°C° 0 mm 3 mps 764 mmHg 52%
    20:00 -2°C° 0 mm 3 mps 764 mmHg 50%
    21:00 -2°C° 0 mm 3 mps 764 mmHg 48%
    22:00 -2°C° 0 mm 3 mps 764 mmHg 48%
    23:00 -2°C° 0 mm 3 mps 765 mmHg 47%

    20 November, Tuesday

    Time Temperature Precipitation Wind Pressure Humidity
    00:00 -3°C° 0 mm 4 mps 765 mmHg 47%
    01:00 -3°C° 0 mm 4 mps 765 mmHg 50%
    02:00 -3°C° 0 mm 4 mps 765 mmHg 53%
    03:00 -3°C° 0 mm 4 mps 765 mmHg 56%
    04:00 -3°C° 0 mm 4 mps 765 mmHg 59%
    05:00 -3°C° 0 mm 4 mps 765 mmHg 62%
    06:00 -3°C° 0 mm 4 mps 765 mmHg 64%
    07:00 -2°C° 0 mm 4 mps 765 mmHg 63%
    08:00 -2°C° 0 mm 4 mps 765 mmHg 61%
    09:00 -2°C° 0 mm 4 mps 765 mmHg 60%
    10:00 -1°C° 0 mm 5 mps 765 mmHg 56%
    11:00 0°C° 0 mm 5 mps 765 mmHg 52%
    12:00 +1°C° 0 mm 5 mps 765 mmHg 49%
    13:00 +1°C° 0 mm 4 mps 765 mmHg 49%
    14:00 +1°C° 0 mm 4 mps 765 mmHg 48%
    15:00 +1°C° 0 mm 4 mps 765 mmHg 48%
    16:00 0°C° 0 mm 4 mps 765 mmHg 49%
    17:00 0°C° 0 mm 4 mps 765 mmHg 50%
    18:00 -1°C° 0 mm 4 mps 765 mmHg 50%
    19:00 -2°C° 0 mm 4 mps 765 mmHg 52%
    20:00 -2°C° 0 mm 4 mps 765 mmHg 53%
    21:00 -1°C° 0 mm 3 mps 764 mmHg 54%
    22:00 -2°C° 0 mm 3 mps 764 mmHg 56%
    23:00 -2°C° 0 mm 3 mps 764 mmHg 58%

    21 November, Wednesday

    Time Temperature Precipitation Wind Pressure Humidity
    00:00 -2°C° 0 mm 3 mps 764 mmHg 61%
    01:00 -2°C° 0 mm 3 mps 764 mmHg 60%
    02:00 -2°C° 0 mm 3 mps 764 mmHg 60%
    03:00 -2°C° 0 mm 3 mps 763 mmHg 59%
    04:00 -2°C° 0 mm 3 mps 763 mmHg 59%
    05:00 -3°C° 0 mm 4 mps 763 mmHg 58%
    06:00 -3°C° 0 mm 4 mps 763 mmHg 58%
    07:00 -3°C° 0 mm 4 mps 763 mmHg 57%
    08:00 -2°C° 0 mm 4 mps 762 mmHg 56%
    09:00 -2°C° 0 mm 5 mps 762 mmHg 56%
    10:00 -1°C° 0 mm 5 mps 762 mmHg 56%
    11:00 0°C° 0 mm 5 mps 762 mmHg 56%
    12:00 0°C° 0 mm 5 mps 761 mmHg 56%
    13:00 +1°C° 0 mm 5 mps 761 mmHg 57%
    14:00 +1°C° 0 mm 5 mps 760 mmHg 59%
    15:00 +1°C° 0 mm 5 mps 760 mmHg 61%
    16:00 0°C° 0 mm 5 mps 760 mmHg 62%
    17:00 0°C° 0 mm 5 mps 759 mmHg 63%
    18:00 0°C° 0 mm 5 mps 759 mmHg 64%
    19:00 0°C° 0 mm 5 mps 759 mmHg 63%
    20:00 0°C° 0 mm 5 mps 759 mmHg 62%
    21:00 0°C° 0 mm 5 mps 759 mmHg 61%
    22:00 0°C° 0 mm 5 mps 758 mmHg 60%
    23:00 0°C° 0 mm 5 mps 758 mmHg 59%
    Show more